Location: Helsinki
(60.1699°N, 24.9384°E)
Time: 12:40:18
(UTC+02:00)

Transit 2A Rocket - Pass Details

Date: 26 September 2023
Orbit: 593 x 903 km, 66.7° (Epoch: 06 December)

Event Time Altitude Azimuth Distance (km) Brightness Sun altitude
Rises 14:48:05 0° 172° (S) 3,307 9.1 25.8°
Reaches altitude 10° 14:51:18 10° 154° (SSE) 2,319 8.1 25.6°
Maximum altitude 14:54:44 18° 113° (ESE) 1,783 7.0 25.4°
Drops below altitude 10° 14:58:00 10° 72° (ENE) 2,192 7.0 25.2°
Sets 15:00:55 0° 53° (NE) 3,054 7.6 25.0°
